FALCON 9 DEB (47182 NORAD) Tracking and Keplerian Element Data

This shows tracking and keplerian element data for the satellite.

Feedback or suggestion? Click here.




ElementValue
Catalog47182
NameFALCON 9 DEB
Epoch Orbit402
Epoch Day352.0890856
Epoch Year2020
RAAN239.7035
Inclination53.0387
Eccentricity0.0017374
Argument of Perigee144.6722
Mean Anonmoly215.548
Mean Motion16.42283273
Decay Rate0.07452166
L11 47182U 20088BN 20352.08908560 .07452166 12224-4 27889-3 0 9991
L22 47182 53.0387 239.7035 0017374 144.6722 215.5480 16.42283273 4026

Live tracking and technical data element details for FALCON 9 DEB (NORAD 47182). FALCON 9 DEB can be tracked NOW for your location showing map with azimuth and elevation plus other details from your city location.

Track the satellite on the map from your city or location and see movement details for azimuth, elevation, latitude, longitude, range, height, and movement on the map or in text.







IsCatalogInMostPopularTable: catalog: 47182, numindb: 49
Update: records affected: 1



GetName: 47182 FALCON 9 DEB

Hit Count: updated at: Fri, 16 Apr 2021 10:20:36 GMT